Tucson Davis Monthan, AZ

10:27 PM MST on July 24, 2017 (GMT -0700)
Davis-Monthan Air Force Base

Weather History for KDMA - March, 2014

Change the Weather History Date:

Saturday, March 1, 2014

  Actual Average Record
Temperature  
Mean Temperature 60 °F -  
Max Temperature 67 °F 70 °F 87 °F (1986)
Min Temperature 52 °F 45 °F 30 °F (1971)
Degree Days  
Heating Degree Days 6    
Growing Degree Days 10 (Base 50)    
Moisture  
Dew Point 46 °F    
Average Humidity 67    
Maximum Humidity 100    
Minimum Humidity 29    
Precipitation  
Precipitation 0.69 in - - ()
Sea Level Pressure  
Sea Level Pressure 29.90 in    
Wind  
Wind Speed 11 mph (SSW)    
Max Wind Speed 30 mph    
Max Gust Speed 43 mph    
Visibility 9 miles    
Events Rain , Thunderstorm    
Averages and records for this station are not official NWS values.
T = Trace of Precipitation, MM = Missing Value Source: NWS Daily Summary

Daily Weather History Graph

Daily Weather History Graph

Search for Another Location

Airport or City:

Trip Planner

Search our weather history database for the weather conditions in past years. The results will help you decide how hot, cold, wet, or windy it might be!

Date:

Astronomy

Mar. 01, 2014 Rise Set
Actual Time 6:50 AM MST 6:21 PM MST
Civil Twilight 6:26 AM MST 6:45 PM MST
Nautical Twilight 5:57 AM MST 7:14 PM MST
Astronomical Twilight 5:29 AM MST 7:42 PM MST
Moon 6:50 AM MST (3/1) 7:07 PM MST (3/1)
Length of Visible Light 12h 19m
Length of Day
11h 30m
New Moon, 0% of the Moon is Illuminated
Mar 1
New Moon
Mar 8
First Quarter
Mar 16
Full
Mar 23
Last Quarter
Mar 30
New

Hourly Weather History & Observations

Time (MST) Temp. Dew Point Humidity Pressure Visibility Wind Dir Wind Speed Gust Speed Precip Events Conditions
12:58 AM 67.3 °F 33.4 °F 29% 29.80 in 10.0 mi SW 8.1 mph - N/A   Clear
1:58 AM 65.7 °F 35.4 °F 33% 29.80 in 10.0 mi WSW 5.8 mph - N/A   Clear
2:58 AM 63.9 °F 38.3 °F 39% 29.78 in 10.0 mi WSW 8.1 mph - N/A   Clear
3:58 AM 63.9 °F 43.0 °F 47% 29.78 in 10.0 mi SW 10.4 mph - N/A   Clear
4:58 AM 63.0 °F 41.2 °F 45% 29.78 in 10.0 mi WSW 8.1 mph - N/A   Clear
5:58 AM 62.2 °F 39.6 °F 43% 29.77 in 10.0 mi SW 5.8 mph - N/A   Clear
6:58 AM 61.2 °F 39.9 °F 46% 29.80 in 10.0 mi NNE 3.5 mph - N/A   Clear
7:58 AM 61.7 °F 38.8 °F 43% 29.82 in 10.0 mi NE 4.6 mph - N/A   Partly Cloudy
8:49 AM 64.4 °F 42.8 °F 45% 29.93 in 10.0 mi WSW 11.5 mph - N/A Thunderstorm Thunderstorm
8:53 AM 64.4 °F 42.8 °F 45% 29.93 in 10.0 mi SW 9.2 mph - N/A Rain , Thunderstorm Light Thunderstorms and Rain
8:58 AM 64.9 °F 43.7 °F 46% 29.84 in 10.0 mi WSW 13.8 mph - 0.00 in Rain , Thunderstorm Light Thunderstorms and Rain
9:01 AM 64.4 °F 44.6 °F 49% 29.94 in 10.0 mi WSW 12.7 mph 19.6 mph N/A   Scattered Clouds
9:04 AM 64.4 °F 46.4 °F 52% 29.94 in 10.0 mi WSW 13.8 mph 19.6 mph N/A Rain Light Rain
9:28 AM 60.8 °F 46.4 °F 59% 29.94 in 10.0 mi West 10.4 mph 21.9 mph N/A   Mostly Cloudy
9:58 AM 60.6 °F 46.6 °F 60% 29.86 in 10.0 mi WNW 5.8 mph - 0.00 in   Scattered Clouds
10:37 AM 60.8 °F 44.6 °F 55% 29.96 in 10.0 mi SW 18.4 mph 38.0 mph N/A   Scattered Clouds
10:58 AM 64.6 °F 44.8 °F 49% 29.87 in 10.0 mi SW 19.6 mph 26.5 mph N/A   Partly Cloudy
11:58 AM 62.8 °F 46.2 °F 55% 29.89 in 10.0 mi SW 17.3 mph 23.0 mph N/A   Scattered Clouds
12:13 PM 62.6 °F 46.4 °F 55% 29.98 in 10.0 mi SW 15.0 mph 27.6 mph N/A   Light Drizzle
12:58 PM 57.6 °F 50.5 °F 77% 29.93 in 10.0 mi SSW 15.0 mph 26.5 mph 0.00 in Rain Light Rain
1:33 PM 55.4 °F 51.8 °F 88% 29.96 in 10.0 mi South 12.7 mph - N/A Rain Light Rain
1:34 PM 55.4 °F 51.8 °F 88% 29.95 in 10.0 mi SSE 13.8 mph - N/A Rain Light Rain
1:46 PM 55.4 °F 51.8 °F 88% 29.95 in 10.0 mi South 11.5 mph - N/A   Scattered Clouds
1:58 PM 55.0 °F 51.1 °F 86% 29.88 in 10.0 mi South 12.7 mph - 0.04 in   Scattered Clouds
2:21 PM 57.2 °F 50.0 °F 77% 29.96 in 10.0 mi SSW 6.9 mph - N/A Rain Light Rain
2:58 PM 54.9 °F 52.0 °F 90% 29.87 in 8.0 mi Variable 4.6 mph 19.6 mph 0.09 in Rain Light Rain
3:58 PM 55.4 °F 54.5 °F 97% 29.87 in 4.0 mi SSW 4.6 mph - 0.08 in Rain Heavy Rain
4:28 PM 55.4 °F 55.4 °F 100% 29.96 in 2.5 mi Variable 3.5 mph - N/A Rain Heavy Rain
4:33 PM 55.4 °F 53.6 °F 94% 29.96 in 2.0 mi South 4.6 mph - N/A Rain Heavy Rain
4:38 PM 55.4 °F 53.6 °F 94% 29.95 in 2.5 mi Variable 4.6 mph - N/A Rain Heavy Rain
4:43 PM 55.4 °F 53.6 °F 94% 29.95 in 3.0 mi SSE 5.8 mph - N/A Rain Heavy Rain
4:58 PM 55.0 °F 54.5 °F 98% 29.89 in 5.0 mi South 12.7 mph - 0.24 in Rain Rain
5:20 PM 53.6 °F 46.4 °F 77% 29.91 in 10.0 mi SSW 28.8 mph 40.3 mph N/A   Mostly Cloudy
5:31 PM 53.6 °F 42.8 °F 67% 29.92 in 10.0 mi SSW 29.9 mph 42.6 mph N/A Rain Light Rain
5:45 PM 53.6 °F 42.8 °F 67% 29.93 in 10.0 mi SSW 21.9 mph 38.0 mph N/A   Mostly Cloudy
5:46 PM 53.6 °F 42.8 °F 67% 29.93 in 10.0 mi SSW 23.0 mph 38.0 mph N/A Rain Light Rain
5:58 PM 53.4 °F 43.7 °F 70% 29.88 in 10.0 mi SSW 19.6 mph 31.1 mph 0.23 in Rain Light Rain
6:14 PM 53.6 °F 42.8 °F 67% 29.94 in 10.0 mi SSW 20.7 mph 36.8 mph N/A   Scattered Clouds
6:32 PM 53.6 °F 42.8 °F 67% 29.94 in 10.0 mi South 16.1 mph 23.0 mph N/A   Light Drizzle
6:50 PM 53.6 °F 44.6 °F 72% 29.93 in 10.0 mi South 20.7 mph 28.8 mph N/A   Clear
6:58 PM 53.1 °F 44.6 °F 73% 29.87 in 10.0 mi South 19.6 mph 32.2 mph 0.00 in Rain Light Rain
7:37 PM 53.6 °F 44.6 °F 72% 29.96 in 10.0 mi NW 10.4 mph - N/A   Mostly Cloudy
7:58 PM 53.1 °F 44.6 °F 73% 29.89 in 10.0 mi Variable 3.5 mph - 0.01 in   Overcast
8:58 PM 52.9 °F 46.2 °F 78% 29.88 in 10.0 mi ENE 10.4 mph - N/A   Overcast
9:58 PM 53.8 °F 44.4 °F 71% 29.90 in 10.0 mi SSW 4.6 mph - N/A   Overcast
10:58 PM 53.8 °F 46.0 °F 75% 29.91 in 10.0 mi SSW 11.5 mph - N/A   Mostly Cloudy
11:47 PM 53.6 °F 46.4 °F 77% 29.96 in 10.0 mi SW 10.4 mph - N/A Rain Light Rain
11:58 PM 53.1 °F 46.9 °F 80% 29.90 in 10.0 mi SSW 10.4 mph - 0.00 in Rain Light Rain